Year,Month,Day,Hour,Minute,Value (Times are PST for windgust in km/hr)
2021,10,23,00,00,9.60
2021,10,23,00,01,14.50
2021,10,23,00,02,9.60
2021,10,23,00,03,8.10
2021,10,23,00,04,6.40
2021,10,23,00,05,9.60
2021,10,23,00,06,9.60
2021,10,23,00,07,9.60
2021,10,23,00,08,8.10
2021,10,23,00,09,4.80
2021,10,23,00,10,8.10
2021,10,23,00,11,8.10
2021,10,23,00,12,6.40
2021,10,23,00,13,8.10
2021,10,23,00,14,8.10
2021,10,23,00,15,8.10
2021,10,23,00,16,8.10
2021,10,23,00,17,6.40
2021,10,23,00,18,6.40
2021,10,23,00,19,8.10
2021,10,23,00,20,6.40
2021,10,23,00,21,6.40
2021,10,23,00,22,6.40
2021,10,23,00,23,3.20
2021,10,23,00,24,1.60
2021,10,23,00,25,1.60
2021,10,23,00,46,4.80
2021,10,23,00,47,4.80
2021,10,23,00,48,6.40
2021,10,23,00,49,6.40
2021,10,23,00,50,6.40
2021,10,23,00,51,8.10
2021,10,23,00,52,8.10
2021,10,23,00,53,8.10
2021,10,23,00,54,9.60
2021,10,23,00,55,8.10
2021,10,23,00,56,8.10
2021,10,23,00,57,9.60
2021,10,23,00,58,8.10
2021,10,23,00,59,8.10
2021,10,23,01,00,8.10
2021,10,23,01,01,8.10
2021,10,23,01,02,8.10
2021,10,23,01,03,8.10
2021,10,23,01,04,8.10
2021,10,23,01,05,8.10
2021,10,23,01,06,6.40
2021,10,23,01,07,8.10
2021,10,23,01,08,12.90
2021,10,23,01,09,9.60
2021,10,23,01,10,11.30
2021,10,23,01,11,11.30
2021,10,23,01,12,12.90
2021,10,23,01,13,11.30
2021,10,23,01,14,12.90
2021,10,23,01,15,12.90
2021,10,23,01,16,12.90
2021,10,23,01,17,11.30
2021,10,23,01,18,12.90
2021,10,23,01,19,12.90
2021,10,23,01,20,11.30
2021,10,23,01,21,11.30
2021,10,23,01,22,11.30
2021,10,23,01,23,12.90
2021,10,23,01,24,12.90
2021,10,23,01,25,11.30
2021,10,23,01,26,11.30
2021,10,23,01,27,8.10
2021,10,23,01,28,8.10
2021,10,23,01,29,8.10
2021,10,23,01,30,6.40
2021,10,23,01,31,8.10
2021,10,23,01,32,11.30
2021,10,23,01,33,8.10
2021,10,23,01,34,11.30
2021,10,23,01,35,11.30
2021,10,23,01,36,12.90
2021,10,23,01,37,8.10
2021,10,23,01,38,11.30
2021,10,23,01,39,11.30
2021,10,23,01,40,11.30
2021,10,23,01,41,11.30
2021,10,23,01,42,12.90
2021,10,23,01,43,11.30
2021,10,23,01,44,11.30
2021,10,23,01,45,11.30
2021,10,23,01,46,11.30
2021,10,23,01,47,8.10
2021,10,23,01,48,11.30
2021,10,23,01,49,12.90
2021,10,23,01,50,12.90
2021,10,23,01,51,12.90
2021,10,23,01,52,11.30
2021,10,23,01,53,11.30
2021,10,23,01,54,12.90
2021,10,23,01,55,14.50
2021,10,23,01,56,12.90
2021,10,23,01,57,11.30
2021,10,23,01,58,11.30
2021,10,23,01,59,12.90
2021,10,23,02,00,11.30
2021,10,23,02,01,12.90
2021,10,23,02,02,12.90
2021,10,23,02,03,14.50
2021,10,23,02,04,14.50
2021,10,23,02,05,12.90
2021,10,23,02,06,12.90
2021,10,23,02,07,12.90
2021,10,23,02,08,11.30
2021,10,23,02,09,12.90
2021,10,23,02,10,12.90
2021,10,23,02,11,12.90
2021,10,23,02,12,11.30
2021,10,23,02,13,11.30
2021,10,23,02,14,11.30
2021,10,23,02,15,8.10
2021,10,23,02,16,8.10
2021,10,23,02,17,9.60
2021,10,23,02,18,6.40
2021,10,23,02,19,8.10
2021,10,23,02,20,6.40
2021,10,23,02,21,6.40
2021,10,23,02,22,6.40
2021,10,23,02,23,6.40
2021,10,23,02,24,6.40
2021,10,23,02,25,6.40
2021,10,23,02,26,8.10
2021,10,23,02,27,8.10
2021,10,23,02,28,8.10
2021,10,23,02,29,8.10
2021,10,23,02,30,6.40
2021,10,23,02,31,6.40
2021,10,23,02,32,6.40
2021,10,23,02,33,6.40
2021,10,23,02,34,3.20
2021,10,23,02,35,3.20
2021,10,23,02,36,1.60
2021,10,23,02,37,1.60
2021,10,23,02,38,1.60
2021,10,23,02,39,1.60
2021,10,23,02,40,1.60
2021,10,23,02,48,1.60
2021,10,23,02,49,1.60
2021,10,23,02,50,4.80
2021,10,23,02,51,4.80
2021,10,23,02,52,3.20
2021,10,23,02,53,3.20
2021,10,23,02,54,3.20
2021,10,23,02,55,3.20
2021,10,23,02,56,4.80
2021,10,23,02,57,4.80
2021,10,23,02,58,4.80
2021,10,23,02,59,4.80
2021,10,23,03,00,3.20
2021,10,23,03,01,3.20
2021,10,23,03,02,1.60
2021,10,23,03,03,1.60
2021,10,23,03,04,1.60
2021,10,23,03,05,1.60
2021,10,23,03,10,3.20
2021,10,23,03,11,3.20
2021,10,23,03,12,3.20
2021,10,23,03,13,3.20
2021,10,23,03,14,4.80
2021,10,23,03,15,4.80
2021,10,23,03,16,4.80
2021,10,23,03,17,4.80
2021,10,23,03,18,4.80
2021,10,23,03,19,6.40
2021,10,23,03,20,4.80
2021,10,23,03,21,4.80
2021,10,23,03,22,6.40
2021,10,23,03,23,4.80
2021,10,23,03,24,4.80
2021,10,23,03,25,4.80
2021,10,23,03,26,4.80
2021,10,23,03,27,6.40
2021,10,23,03,28,6.40
2021,10,23,03,29,6.40
2021,10,23,03,30,4.80
2021,10,23,03,31,6.40
2021,10,23,03,32,4.80
2021,10,23,03,33,4.80
2021,10,23,03,34,4.80
2021,10,23,03,35,4.80
2021,10,23,03,36,6.40
2021,10,23,03,37,6.40
2021,10,23,03,38,6.40
2021,10,23,03,39,4.80
2021,10,23,03,40,4.80
2021,10,23,03,41,4.80
2021,10,23,03,42,4.80
2021,10,23,03,43,3.20
2021,10,23,03,44,3.20
2021,10,23,03,45,3.20
2021,10,23,03,46,3.20
2021,10,23,03,47,3.20
2021,10,23,03,48,4.80
2021,10,23,03,49,4.80
2021,10,23,03,50,4.80
2021,10,23,03,51,4.80
2021,10,23,03,52,4.80
2021,10,23,03,53,4.80
2021,10,23,03,54,4.80
2021,10,23,03,55,4.80
2021,10,23,03,56,6.40
2021,10,23,03,57,6.40
2021,10,23,03,58,4.80
2021,10,23,03,59,4.80
2021,10,23,04,00,4.80
2021,10,23,04,01,4.80
2021,10,23,04,02,4.80
2021,10,23,04,03,6.40
2021,10,23,04,04,4.80
2021,10,23,04,05,4.80
2021,10,23,04,06,4.80
2021,10,23,04,07,4.80
2021,10,23,04,08,4.80
2021,10,23,04,09,3.20
2021,10,23,04,10,4.80
2021,10,23,04,11,3.20
2021,10,23,04,12,1.60
2021,10,23,04,13,1.60
2021,10,23,04,14,1.60
2021,10,23,04,15,1.60
2021,10,23,04,17,3.20
2021,10,23,04,18,4.80
2021,10,23,04,19,6.40
2021,10,23,04,20,6.40
2021,10,23,04,21,6.40
2021,10,23,04,22,8.10
2021,10,23,04,23,9.60
2021,10,23,04,24,6.40
2021,10,23,04,25,6.40
2021,10,23,04,26,8.10
2021,10,23,04,27,8.10
2021,10,23,04,28,8.10
2021,10,23,04,29,6.40
2021,10,23,04,30,8.10
2021,10,23,04,31,6.40
2021,10,23,04,32,8.10
2021,10,23,04,33,6.40
2021,10,23,04,34,6.40
2021,10,23,04,35,6.40
2021,10,23,04,36,6.40
2021,10,23,04,37,8.10
2021,10,23,04,38,9.60
2021,10,23,04,39,8.10
2021,10,23,04,40,6.40
2021,10,23,04,41,8.10
2021,10,23,04,42,6.40
2021,10,23,04,43,6.40
2021,10,23,04,44,6.40
2021,10,23,04,45,4.80
2021,10,23,04,46,6.40
2021,10,23,04,47,4.80
2021,10,23,04,48,11.30
2021,10,23,04,49,11.30
2021,10,23,04,50,12.90
2021,10,23,04,51,11.30
2021,10,23,04,52,9.60
2021,10,23,04,53,11.30
2021,10,23,04,54,12.90
2021,10,23,04,55,12.90
2021,10,23,04,56,12.90
2021,10,23,04,57,17.70
2021,10,23,04,58,16.10
2021,10,23,04,59,17.70
2021,10,23,05,00,16.10
2021,10,23,05,01,14.50
2021,10,23,05,02,16.10
2021,10,23,05,03,17.70
2021,10,23,05,04,14.50
2021,10,23,05,05,20.90
2021,10,23,05,06,17.70
2021,10,23,05,07,14.50
2021,10,23,05,08,17.70
2021,10,23,05,09,17.70
2021,10,23,05,10,14.50
2021,10,23,05,11,16.10
2021,10,23,05,12,17.70
2021,10,23,05,13,16.10
2021,10,23,05,14,19.30
2021,10,23,05,15,17.70
2021,10,23,05,16,12.90
2021,10,23,05,17,14.50
2021,10,23,05,18,14.50
2021,10,23,05,19,19.30
2021,10,23,05,20,17.70
2021,10,23,05,21,12.90
2021,10,23,05,22,16.10
2021,10,23,05,23,17.70
2021,10,23,05,24,17.70
2021,10,23,05,25,14.50
2021,10,23,05,26,14.50
2021,10,23,05,27,14.50
2021,10,23,05,28,17.70
2021,10,23,05,29,19.30
2021,10,23,05,30,14.50
2021,10,23,05,31,16.10
2021,10,23,05,32,17.70
2021,10,23,05,33,16.10
2021,10,23,05,34,16.10
2021,10,23,05,35,14.50
2021,10,23,05,36,19.30
2021,10,23,05,37,16.10
2021,10,23,05,38,16.10
2021,10,23,05,39,17.70
2021,10,23,05,40,19.30
2021,10,23,05,41,24.20
2021,10,23,05,42,29.00
2021,10,23,05,43,30.60
2021,10,23,05,44,19.30
2021,10,23,05,45,24.20
2021,10,23,05,46,27.40
2021,10,23,05,47,30.60
2021,10,23,05,48,27.40
2021,10,23,05,49,24.20
2021,10,23,05,50,19.30
2021,10,23,05,51,22.50
2021,10,23,05,52,22.50
2021,10,23,05,53,17.70
2021,10,23,05,54,24.20
2021,10,23,05,55,20.90
2021,10,23,05,56,20.90
2021,10,23,05,57,19.30
2021,10,23,05,58,27.40
2021,10,23,05,59,30.60
2021,10,23,06,00,25.70
2021,10,23,06,01,24.20
2021,10,23,06,02,24.20
2021,10,23,06,03,22.50
2021,10,23,06,04,25.70
2021,10,23,06,05,22.50
2021,10,23,06,06,20.90
2021,10,23,06,07,19.30
2021,10,23,06,08,24.20
2021,10,23,06,09,24.20
2021,10,23,06,10,24.20
2021,10,23,06,11,20.90
2021,10,23,06,12,19.30
2021,10,23,06,13,19.30
2021,10,23,06,14,24.20
2021,10,23,06,15,24.20
2021,10,23,06,16,25.70
2021,10,23,06,17,25.70
2021,10,23,06,18,17.70
2021,10,23,06,19,20.90
2021,10,23,06,20,19.30
2021,10,23,06,21,17.70
2021,10,23,06,22,16.10
2021,10,23,06,23,17.70
2021,10,23,06,24,19.30
2021,10,23,06,25,14.50
2021,10,23,06,26,19.30
2021,10,23,06,27,25.70
2021,10,23,06,28,25.70
2021,10,23,06,29,24.20
2021,10,23,06,30,20.90
2021,10,23,06,31,24.20
2021,10,23,06,32,25.70
2021,10,23,06,33,25.70
2021,10,23,06,34,22.50
2021,10,23,06,35,20.90
2021,10,23,06,36,19.30
2021,10,23,06,37,20.90
2021,10,23,06,38,25.70
2021,10,23,06,39,25.70
2021,10,23,06,40,29.00
2021,10,23,06,41,25.70
2021,10,23,06,42,30.60
2021,10,23,06,43,29.00
2021,10,23,06,44,22.50
2021,10,23,06,45,25.70
2021,10,23,06,46,30.60
2021,10,23,06,47,29.00
2021,10,23,06,48,29.00
2021,10,23,06,49,22.50
2021,10,23,06,50,32.20
2021,10,23,06,51,32.20
2021,10,23,06,52,27.40
2021,10,23,06,53,35.40
2021,10,23,06,54,35.40
2021,10,23,06,55,29.00
2021,10,23,06,56,41.80
2021,10,23,06,57,33.80
2021,10,23,06,58,32.20
2021,10,23,06,59,29.00
2021,10,23,07,00,27.40
2021,10,23,07,01,30.60
2021,10,23,07,02,30.60
2021,10,23,07,03,33.80
2021,10,23,07,04,37.00
2021,10,23,07,05,38.60
2021,10,23,07,06,37.00
2021,10,23,07,07,37.00
2021,10,23,07,08,29.00
2021,10,23,07,09,32.20
2021,10,23,07,10,30.60
2021,10,23,07,11,33.80
2021,10,23,07,12,33.80
2021,10,23,07,13,30.60
2021,10,23,07,14,35.40
2021,10,23,07,15,37.00
2021,10,23,07,16,32.20
2021,10,23,07,17,30.60
2021,10,23,07,18,35.40
2021,10,23,07,19,33.80
2021,10,23,07,20,32.20
2021,10,23,07,21,25.70
2021,10,23,07,22,41.80
2021,10,23,07,23,29.00
2021,10,23,07,24,37.00
2021,10,23,07,25,32.20
2021,10,23,07,26,27.40
2021,10,23,07,27,32.20
2021,10,23,07,28,30.60
2021,10,23,07,29,25.70
2021,10,23,07,30,33.80
2021,10,23,07,31,33.80
2021,10,23,07,32,32.20
2021,10,23,07,33,32.20
2021,10,23,07,34,27.40
2021,10,23,07,35,33.80
2021,10,23,07,36,33.80
2021,10,23,07,37,35.40
2021,10,23,07,38,38.60
2021,10,23,07,39,33.80
2021,10,23,07,40,38.60
2021,10,23,07,41,35.40
2021,10,23,07,42,30.60
2021,10,23,07,43,27.40
2021,10,23,07,44,24.20
2021,10,23,07,45,33.80
2021,10,23,07,46,32.20
2021,10,23,07,47,30.60
2021,10,23,07,48,32.20
2021,10,23,07,49,30.60
2021,10,23,07,50,35.40
2021,10,23,07,51,29.00
2021,10,23,07,52,40.20
2021,10,23,07,53,32.20
2021,10,23,07,54,29.00
2021,10,23,07,55,29.00
2021,10,23,07,56,35.40
2021,10,23,07,57,35.40
2021,10,23,07,58,27.40
2021,10,23,07,59,40.20
2021,10,23,08,00,38.60
2021,10,23,08,01,27.40
2021,10,23,08,02,30.60
2021,10,23,08,03,29.00
2021,10,23,08,04,40.20
2021,10,23,08,05,37.00
2021,10,23,08,06,35.40
2021,10,23,08,07,35.40
2021,10,23,08,08,37.00
2021,10,23,08,09,35.40
2021,10,23,08,10,33.80
2021,10,23,08,11,41.80
2021,10,23,08,12,37.00
2021,10,23,08,13,32.20
2021,10,23,08,14,37.00
2021,10,23,08,15,37.00
2021,10,23,08,16,40.20
2021,10,23,08,17,40.20
2021,10,23,08,18,38.60
2021,10,23,08,19,30.60
2021,10,23,08,20,25.70
2021,10,23,08,21,32.20
2021,10,23,08,22,35.40
2021,10,23,08,23,40.20
2021,10,23,08,24,40.20
2021,10,23,08,25,40.20
2021,10,23,08,26,30.60
2021,10,23,08,27,29.00
2021,10,23,08,28,30.60
2021,10,23,08,29,33.80
2021,10,23,08,30,35.40
2021,10,23,08,31,30.60
2021,10,23,08,32,35.40
2021,10,23,08,33,37.00
2021,10,23,08,34,35.40
2021,10,23,08,35,32.20
2021,10,23,08,36,38.60
2021,10,23,08,37,33.80
2021,10,23,08,38,24.20
2021,10,23,08,39,30.60
2021,10,23,08,40,30.60
2021,10,23,08,41,29.00
2021,10,23,08,42,38.60
2021,10,23,08,43,35.40
2021,10,23,08,44,32.20
2021,10,23,08,45,32.20
2021,10,23,08,46,35.40
2021,10,23,08,47,32.20
2021,10,23,08,48,30.60
2021,10,23,08,49,29.00
2021,10,23,08,50,30.60
2021,10,23,08,51,33.80
2021,10,23,08,52,32.20
2021,10,23,08,53,35.40
2021,10,23,08,54,29.00
2021,10,23,08,55,22.50
2021,10,23,08,56,29.00
2021,10,23,08,57,27.40
2021,10,23,08,58,30.60
2021,10,23,08,59,32.20
2021,10,23,09,00,32.20
2021,10,23,09,01,35.40
2021,10,23,09,02,32.20
2021,10,23,09,03,29.00
2021,10,23,09,04,27.40
2021,10,23,09,05,29.00
2021,10,23,09,06,30.60
2021,10,23,09,07,33.80
2021,10,23,09,08,33.80
2021,10,23,09,09,33.80
2021,10,23,09,10,38.60
2021,10,23,09,11,30.60
2021,10,23,09,12,30.60
2021,10,23,09,13,35.40
2021,10,23,09,14,40.20
2021,10,23,09,15,41.80
2021,10,23,09,16,38.60
2021,10,23,09,17,35.40
2021,10,23,09,18,37.00
2021,10,23,09,19,33.80
2021,10,23,09,20,40.20
2021,10,23,09,21,35.40
2021,10,23,09,22,30.60
2021,10,23,09,23,33.80
2021,10,23,09,24,41.80
2021,10,23,09,25,35.40
2021,10,23,09,26,33.80
2021,10,23,09,27,33.80
2021,10,23,09,28,32.20
2021,10,23,09,29,38.60
2021,10,23,09,30,35.40
2021,10,23,09,31,35.40
2021,10,23,09,32,33.80
2021,10,23,09,33,37.00
2021,10,23,09,34,48.30
2021,10,23,09,35,38.60
2021,10,23,09,36,48.30
2021,10,23,09,37,38.60
2021,10,23,09,38,45.10
2021,10,23,09,39,43.50
2021,10,23,09,40,37.00
2021,10,23,09,41,33.80
2021,10,23,09,42,30.60
2021,10,23,09,43,32.20
2021,10,23,09,44,38.60
2021,10,23,09,45,45.10
2021,10,23,09,46,33.80
2021,10,23,09,47,30.60
2021,10,23,09,48,30.60
2021,10,23,09,49,35.40
2021,10,23,09,50,37.00
2021,10,23,09,51,40.20
2021,10,23,09,52,33.80
2021,10,23,09,53,33.80
2021,10,23,09,54,40.20
2021,10,23,09,55,33.80
2021,10,23,09,56,30.60
2021,10,23,09,57,41.80
2021,10,23,09,58,37.00
2021,10,23,09,59,37.00
2021,10,23,10,00,35.40
2021,10,23,10,01,29.00
2021,10,23,10,02,29.00
2021,10,23,10,03,29.00
2021,10,23,10,04,38.60
2021,10,23,10,05,35.40
2021,10,23,10,06,40.20
2021,10,23,10,07,30.60
2021,10,23,10,08,33.80
2021,10,23,10,09,37.00
2021,10,23,10,10,33.80
2021,10,23,10,11,37.00
2021,10,23,10,12,40.20
2021,10,23,10,13,38.60
2021,10,23,10,14,35.40
2021,10,23,10,15,29.00
2021,10,23,10,16,32.20
2021,10,23,10,17,35.40
2021,10,23,10,18,40.20
2021,10,23,10,19,35.40
2021,10,23,10,20,35.40
2021,10,23,10,21,43.50
2021,10,23,10,22,40.20
2021,10,23,10,23,30.60
2021,10,23,10,24,30.60
2021,10,23,10,25,33.80
2021,10,23,10,26,37.00
2021,10,23,10,27,41.80
2021,10,23,10,28,32.20
2021,10,23,10,29,37.00
2021,10,23,10,30,29.00
2021,10,23,10,31,30.60
2021,10,23,10,32,29.00
2021,10,23,10,33,32.20
2021,10,23,10,34,33.80
2021,10,23,10,35,32.20
2021,10,23,10,36,29.00
2021,10,23,10,37,32.20
2021,10,23,10,38,35.40
2021,10,23,10,39,37.00
2021,10,23,10,40,37.00
2021,10,23,10,41,33.80
2021,10,23,10,42,32.20
2021,10,23,10,43,32.20
2021,10,23,10,44,30.60
2021,10,23,10,45,38.60
2021,10,23,10,46,35.40
2021,10,23,10,47,37.00
2021,10,23,10,48,38.60
2021,10,23,10,49,37.00
2021,10,23,10,50,40.20
2021,10,23,10,51,38.60
2021,10,23,10,52,40.20
2021,10,23,10,53,37.00
2021,10,23,10,54,37.00
2021,10,23,10,55,32.20
2021,10,23,10,56,37.00
2021,10,23,10,57,41.80
2021,10,23,10,58,38.60
2021,10,23,10,59,38.60
2021,10,23,11,00,45.10
2021,10,23,11,01,45.10
2021,10,23,11,02,38.60
2021,10,23,11,03,38.60
2021,10,23,11,04,40.20
2021,10,23,11,05,38.60
2021,10,23,11,06,37.00
2021,10,23,11,07,33.80
2021,10,23,11,08,41.80
2021,10,23,11,09,38.60
2021,10,23,11,10,40.20
2021,10,23,11,11,41.80
2021,10,23,11,12,40.20
2021,10,23,11,13,32.20
2021,10,23,11,14,35.40
2021,10,23,11,15,33.80
2021,10,23,11,16,30.60
2021,10,23,11,17,37.00
2021,10,23,11,18,32.20
2021,10,23,11,19,37.00
2021,10,23,11,20,30.60
2021,10,23,11,21,35.40
2021,10,23,11,22,35.40
2021,10,23,11,23,35.40
2021,10,23,11,24,29.00
2021,10,23,11,25,32.20
2021,10,23,11,26,35.40
2021,10,23,11,27,32.20
2021,10,23,11,28,40.20
2021,10,23,11,29,29.00
2021,10,23,11,30,32.20
2021,10,23,11,31,32.20
2021,10,23,11,32,33.80
2021,10,23,11,33,29.00
2021,10,23,11,34,32.20
2021,10,23,11,35,27.40
2021,10,23,11,36,33.80
2021,10,23,11,37,25.70
2021,10,23,11,38,33.80
2021,10,23,11,39,35.40
2021,10,23,11,40,30.60
2021,10,23,11,41,29.00
2021,10,23,11,42,29.00
2021,10,23,11,43,29.00
2021,10,23,11,44,27.40
2021,10,23,11,45,35.40
2021,10,23,11,46,30.60
2021,10,23,11,47,27.40
2021,10,23,11,48,29.00
2021,10,23,11,49,27.40
2021,10,23,11,50,33.80
2021,10,23,11,51,32.20
2021,10,23,11,52,27.40
2021,10,23,11,53,37.00
2021,10,23,11,54,27.40
2021,10,23,11,55,32.20
2021,10,23,11,56,29.00
2021,10,23,11,57,33.80
2021,10,23,11,58,29.00
2021,10,23,11,59,27.40
2021,10,23,12,00,35.40
2021,10,23,12,01,33.80
2021,10,23,12,02,30.60
2021,10,23,12,03,27.40
2021,10,23,12,04,29.00
2021,10,23,12,05,24.20
2021,10,23,12,06,27.40
2021,10,23,12,07,22.50
2021,10,23,12,08,32.20
2021,10,23,12,09,33.80
2021,10,23,12,10,29.00
2021,10,23,12,11,32.20
2021,10,23,12,12,32.20
2021,10,23,12,13,30.60
2021,10,23,12,14,30.60
2021,10,23,12,15,30.60
2021,10,23,12,16,35.40
2021,10,23,12,17,32.20
2021,10,23,12,18,29.00
2021,10,23,12,19,27.40
2021,10,23,12,20,29.00
2021,10,23,12,21,27.40
2021,10,23,12,22,27.40
2021,10,23,12,23,24.20
2021,10,23,12,24,24.20
2021,10,23,12,25,24.20
2021,10,23,12,26,25.70
2021,10,23,12,27,24.20
2021,10,23,12,28,22.50
2021,10,23,12,29,29.00
2021,10,23,12,30,17.70
2021,10,23,12,31,25.70
2021,10,23,12,32,25.70
2021,10,23,12,33,27.40
2021,10,23,12,34,25.70
2021,10,23,12,35,24.20
2021,10,23,12,36,24.20
2021,10,23,12,37,27.40
2021,10,23,12,38,22.50
2021,10,23,12,39,29.00
2021,10,23,12,40,25.70
2021,10,23,12,41,17.70
2021,10,23,12,42,22.50
2021,10,23,12,43,25.70
2021,10,23,12,44,24.20
2021,10,23,12,45,20.90
2021,10,23,12,46,24.20
2021,10,23,12,47,22.50
2021,10,23,12,48,20.90
2021,10,23,12,49,24.20
2021,10,23,12,50,17.70
2021,10,23,12,51,17.70
2021,10,23,12,52,16.10
2021,10,23,12,53,20.90
2021,10,23,12,54,17.70
2021,10,23,12,55,25.70
2021,10,23,12,56,22.50
2021,10,23,12,57,25.70
2021,10,23,12,58,22.50
2021,10,23,12,59,19.30
2021,10,23,13,00,16.10
2021,10,23,13,01,17.70
2021,10,23,13,02,17.70
2021,10,23,13,03,16.10
2021,10,23,13,04,20.90
2021,10,23,13,05,29.00
2021,10,23,13,06,27.40
2021,10,23,13,07,24.20
2021,10,23,13,08,22.50
2021,10,23,13,09,20.90
2021,10,23,13,10,24.20
2021,10,23,13,11,24.20
2021,10,23,13,12,24.20
2021,10,23,13,13,24.20
2021,10,23,13,14,24.20
2021,10,23,13,15,24.20
2021,10,23,13,16,27.40
2021,10,23,13,17,22.50
2021,10,23,13,18,30.60
2021,10,23,13,19,29.00
2021,10,23,13,20,25.70
2021,10,23,13,21,24.20
2021,10,23,13,22,30.60
2021,10,23,13,23,27.40
2021,10,23,13,24,24.20
2021,10,23,13,25,27.40
2021,10,23,13,26,22.50
2021,10,23,13,27,20.90
2021,10,23,13,28,25.70
2021,10,23,13,29,29.00
2021,10,23,13,30,25.70
2021,10,23,13,31,24.20
2021,10,23,13,32,30.60
2021,10,23,13,33,27.40
2021,10,23,13,34,25.70
2021,10,23,13,35,27.40
2021,10,23,13,36,29.00
2021,10,23,13,37,35.40
2021,10,23,13,38,24.20
2021,10,23,13,39,22.50
2021,10,23,13,40,22.50
2021,10,23,13,41,32.20
2021,10,23,13,42,24.20
2021,10,23,13,43,22.50
2021,10,23,13,44,29.00
2021,10,23,13,45,33.80
2021,10,23,13,46,30.60
2021,10,23,13,47,27.40
2021,10,23,13,48,24.20
2021,10,23,13,49,25.70
2021,10,23,13,50,24.20
2021,10,23,13,51,30.60
2021,10,23,13,52,19.30
2021,10,23,13,53,24.20
2021,10,23,13,54,19.30
2021,10,23,13,55,24.20
2021,10,23,13,56,25.70
2021,10,23,13,57,20.90
2021,10,23,13,58,20.90
2021,10,23,13,59,29.00
2021,10,23,14,00,27.40
2021,10,23,14,01,24.20
2021,10,23,14,02,22.50
2021,10,23,14,03,20.90
2021,10,23,14,04,20.90
2021,10,23,14,05,25.70
2021,10,23,14,06,20.90
2021,10,23,14,07,22.50
2021,10,23,14,08,19.30
2021,10,23,14,09,17.70
2021,10,23,14,10,22.50
2021,10,23,14,11,24.20
2021,10,23,14,12,20.90
2021,10,23,14,13,24.20
2021,10,23,14,14,17.70
2021,10,23,14,15,20.90
2021,10,23,14,16,19.30
2021,10,23,14,17,19.30
2021,10,23,14,18,17.70
2021,10,23,14,19,19.30
2021,10,23,14,20,20.90
2021,10,23,14,21,20.90
2021,10,23,14,22,17.70
2021,10,23,14,23,14.50
2021,10,23,14,24,16.10
2021,10,23,14,25,16.10
2021,10,23,14,26,14.50
2021,10,23,14,27,11.30
2021,10,23,14,28,11.30
2021,10,23,14,29,9.60
2021,10,23,14,30,11.30
2021,10,23,14,31,9.60
2021,10,23,14,32,6.40
2021,10,23,14,33,6.40
2021,10,23,14,34,6.40
2021,10,23,14,35,9.60
2021,10,23,14,36,9.60
2021,10,23,14,37,11.30
2021,10,23,14,38,11.30
2021,10,23,14,39,11.30
2021,10,23,14,40,8.10
2021,10,23,14,41,11.30
2021,10,23,14,42,11.30
2021,10,23,14,43,6.40
2021,10,23,14,44,6.40
2021,10,23,14,45,6.40
2021,10,23,14,46,4.80
2021,10,23,14,47,4.80
2021,10,23,14,48,4.80
2021,10,23,14,49,4.80
2021,10,23,14,50,4.80
2021,10,23,14,51,4.80
2021,10,23,14,52,4.80
2021,10,23,14,53,4.80
2021,10,23,14,54,3.20
2021,10,23,14,55,6.40
2021,10,23,14,56,4.80
2021,10,23,14,57,3.20
2021,10,23,14,58,4.80
2021,10,23,14,59,3.20
2021,10,23,15,00,6.40
2021,10,23,15,01,6.40
2021,10,23,15,02,4.80
2021,10,23,15,03,6.40
2021,10,23,15,04,8.10
2021,10,23,15,05,9.60
2021,10,23,15,06,9.60
2021,10,23,15,07,9.60
2021,10,23,15,08,9.60
2021,10,23,15,09,9.60
2021,10,23,15,10,9.60
2021,10,23,15,11,8.10
2021,10,23,15,12,8.10
2021,10,23,15,13,11.30
2021,10,23,15,14,11.30
2021,10,23,15,15,11.30
2021,10,23,15,16,8.10
2021,10,23,15,17,8.10
2021,10,23,15,18,4.80
2021,10,23,15,19,6.40
2021,10,23,15,20,8.10
2021,10,23,15,21,8.10
2021,10,23,15,22,8.10
2021,10,23,15,23,11.30
2021,10,23,15,24,12.90
2021,10,23,15,25,9.60
2021,10,23,15,26,16.10
2021,10,23,15,27,12.90
2021,10,23,15,28,16.10
2021,10,23,15,29,17.70
2021,10,23,15,30,16.10
2021,10,23,15,31,20.90
2021,10,23,15,32,19.30
2021,10,23,15,33,22.50
2021,10,23,15,34,17.70
2021,10,23,15,35,19.30
2021,10,23,15,36,20.90
2021,10,23,15,37,19.30
2021,10,23,15,38,20.90
2021,10,23,15,39,20.90
2021,10,23,15,40,22.50
2021,10,23,15,41,20.90
2021,10,23,15,42,17.70
2021,10,23,15,43,16.10
2021,10,23,15,44,16.10
2021,10,23,15,45,16.10
2021,10,23,15,46,16.10
2021,10,23,15,47,16.10
2021,10,23,15,48,17.70
2021,10,23,15,49,17.70
2021,10,23,15,50,19.30
2021,10,23,15,51,20.90
2021,10,23,15,52,19.30
2021,10,23,15,53,20.90
2021,10,23,15,54,20.90
2021,10,23,15,55,17.70
2021,10,23,15,56,22.50
2021,10,23,15,57,17.70
2021,10,23,15,58,17.70
2021,10,23,15,59,17.70
2021,10,23,16,00,16.10
2021,10,23,16,01,16.10
2021,10,23,16,02,16.10
2021,10,23,16,03,14.50
2021,10,23,16,04,9.60
2021,10,23,16,05,11.30
2021,10,23,16,06,8.10
2021,10,23,16,07,6.40
2021,10,23,16,08,4.80
2021,10,23,16,09,6.40
2021,10,23,16,10,6.40
2021,10,23,16,11,4.80
2021,10,23,16,12,4.80
2021,10,23,16,13,6.40
2021,10,23,16,14,6.40
2021,10,23,16,15,6.40
2021,10,23,16,16,6.40
2021,10,23,16,17,4.80
2021,10,23,16,18,4.80
2021,10,23,16,19,3.20
2021,10,23,16,20,3.20
2021,10,23,16,21,1.60
2021,10,23,16,22,1.60
2021,10,23,16,23,3.20
2021,10,23,16,24,3.20
2021,10,23,16,26,1.60
2021,10,23,16,27,3.20
2021,10,23,16,28,3.20
2021,10,23,16,29,4.80
2021,10,23,16,30,4.80
2021,10,23,16,31,4.80
2021,10,23,16,32,4.80
2021,10,23,16,33,4.80
2021,10,23,16,34,4.80
2021,10,23,16,35,4.80
2021,10,23,16,36,4.80
2021,10,23,16,37,4.80
2021,10,23,16,38,3.20
2021,10,23,16,39,3.20
2021,10,23,16,40,1.60
2021,10,23,16,41,3.20
2021,10,23,16,42,3.20
2021,10,23,16,43,3.20
2021,10,23,16,44,6.40
2021,10,23,16,45,4.80
2021,10,23,16,46,6.40
2021,10,23,16,47,6.40
2021,10,23,16,48,8.10
2021,10,23,16,49,8.10
2021,10,23,16,50,11.30
2021,10,23,16,51,8.10
2021,10,23,16,52,8.10
2021,10,23,16,53,6.40
2021,10,23,16,54,12.90
2021,10,23,16,55,11.30
2021,10,23,16,56,14.50
2021,10,23,16,57,12.90
2021,10,23,16,58,12.90
2021,10,23,16,59,12.90
2021,10,23,17,00,12.90
2021,10,23,17,01,11.30
2021,10,23,17,02,11.30
2021,10,23,17,03,9.60
2021,10,23,17,04,6.40
2021,10,23,17,05,6.40
2021,10,23,17,06,6.40
2021,10,23,17,07,8.10
2021,10,23,17,08,11.30
2021,10,23,17,09,14.50
2021,10,23,17,10,12.90
2021,10,23,17,11,14.50
2021,10,23,17,12,14.50
2021,10,23,17,13,11.30
2021,10,23,17,14,11.30
2021,10,23,17,15,11.30
2021,10,23,17,16,11.30
2021,10,23,17,17,11.30
2021,10,23,17,18,9.60
2021,10,23,17,19,9.60
2021,10,23,17,20,9.60
2021,10,23,17,21,8.10
2021,10,23,17,22,6.40
2021,10,23,17,23,9.60
2021,10,23,17,24,6.40
2021,10,23,17,25,6.40
2021,10,23,17,26,6.40
2021,10,23,17,27,8.10
2021,10,23,17,28,6.40
2021,10,23,17,29,8.10
2021,10,23,17,30,9.60
2021,10,23,17,31,3.20
2021,10,23,17,32,4.80
2021,10,23,17,33,3.20
2021,10,23,17,34,3.20
2021,10,23,17,35,3.20
2021,10,23,17,36,6.40
2021,10,23,17,37,4.80
2021,10,23,17,38,4.80
2021,10,23,17,39,4.80
2021,10,23,17,40,4.80
2021,10,23,17,41,6.40
2021,10,23,17,42,8.10
2021,10,23,17,43,8.10
2021,10,23,17,44,6.40
2021,10,23,17,45,6.40
2021,10,23,17,46,4.80
2021,10,23,17,47,6.40
2021,10,23,17,48,8.10
2021,10,23,17,49,4.80
2021,10,23,17,50,3.20
2021,10,23,17,51,6.40
2021,10,23,17,52,6.40
2021,10,23,17,53,6.40
2021,10,23,17,54,6.40
2021,10,23,17,55,6.40
2021,10,23,17,56,4.80
2021,10,23,17,57,4.80
2021,10,23,17,58,3.20
2021,10,23,17,59,3.20
2021,10,23,18,00,3.20
2021,10,23,18,01,4.80
2021,10,23,18,02,3.20
2021,10,23,18,03,4.80
2021,10,23,18,04,4.80
2021,10,23,18,05,6.40
2021,10,23,18,06,8.10
2021,10,23,18,07,8.10